Time,TemperatureF,DewpointF,PressureIn,WindDirection,WindDirectionDegrees,WindSpeedMPH,WindSpeedGustMPH,Humidity,HourlyPrecipIn,Conditions,Clouds,dailyrainin,SoftwareType,DateUTC
2013-01-14 00:15:00,48.9,48.9,30.01,SSE,158,2.0,4.0,100,0.00,OVC,,0.00,WeatherDisplay:10.37,2013-01-14 05:15:00,
2013-01-14 00:30:00,48.7,48.7,30.01,ESE,116,1.0,2.0,100,0.00,OVC,,0.00,WeatherDisplay:10.37,2013-01-14 05:30:00,
2013-01-14 00:45:00,48.6,48.6,30.01,SSE,158,0.0,2.0,100,0.00,OVC,,0.00,WeatherDisplay:10.37,2013-01-14 05:45:00,
2013-01-14 01:00:00,48.6,48.6,30.01,SE,136,0.0,1.0,100,0.00,OVC,,0.00,WeatherDisplay:10.37,2013-01-14 06:00:00,
2013-01-14 01:15:00,48.4,48.4,30.01,SSE,147,0.0,1.0,100,0.00,OVC,,0.00,WeatherDisplay:10.37,2013-01-14 06:15:00,
2013-01-14 01:30:00,48.0,48.0,30.01,SSE,166,0.0,0.0,100,0.00,OVC,,0.00,WeatherDisplay:10.37,2013-01-14 06:30:00,
2013-01-14 01:45:00,48.4,48.4,30.01,SSE,167,0.0,3.0,100,0.00,OVC,,0.00,WeatherDisplay:10.37,2013-01-14 06:45:00,
2013-01-14 02:00:00,48.9,48.9,30.01,South,191,0.0,0.0,100,0.00,OVC,,0.00,WeatherDisplay:10.37,2013-01-14 07:00:00,
2013-01-14 02:15:00,49.1,49.1,30.01,South,170,0.0,1.0,100,0.00,SCT,,0.00,WeatherDisplay:10.37,2013-01-14 07:15:00,
2013-01-14 02:30:00,49.5,49.5,30.01,SSW,202,0.0,0.0,100,0.00,SCT,,0.00,WeatherDisplay:10.37,2013-01-14 07:30:00,
2013-01-14 02:45:00,49.6,49.6,30.01,SE,136,0.0,1.0,100,0.00,SCT,,0.00,WeatherDisplay:10.37,2013-01-14 07:45:00,
2013-01-14 03:00:00,50.4,50.4,30.01,SSW,213,0.0,1.0,100,0.00,CLR,,0.00,WeatherDisplay:10.37,2013-01-14 08:00:00,
2013-01-14 03:15:00,50.4,50.4,30.01,South,170,0.0,0.0,100,0.00,CLR,,0.00,WeatherDisplay:10.37,2013-01-14 08:15:00,
2013-01-14 03:30:00,50.2,50.2,30.01,South,186,0.0,2.0,100,0.00,CLR,,0.00,WeatherDisplay:10.37,2013-01-14 08:30:00,
2013-01-14 03:45:00,50.2,50.2,30.01,SSE,167,0.0,0.0,100,0.00,CLR,,0.00,WeatherDisplay:10.37,2013-01-14 08:45:00,
2013-01-14 04:00:00,50.5,50.5,30.01,South,178,0.0,0.0,100,0.00,CLR,,0.00,WeatherDisplay:10.37,2013-01-14 09:00:00,
2013-01-14 04:15:00,50.0,50.0,30.01,South,185,0.0,0.0,100,0.00,CLR,,0.00,WeatherDisplay:10.37,2013-01-14 09:15:00,
2013-01-14 04:30:00,50.0,50.0,29.99,SSE,151,0.0,0.0,100,0.00,CLR,,0.00,WeatherDisplay:10.37,2013-01-14 09:30:00,
2013-01-14 04:45:00,50.0,50.0,29.99,South,186,0.0,0.0,100,0.00,CLR,,0.00,WeatherDisplay:10.37,2013-01-14 09:45:00,
2013-01-14 05:00:00,49.6,49.6,29.99,SW,217,0.0,0.0,100,0.00,CLR,,0.00,WeatherDisplay:10.37,2013-01-14 10:00:00,
2013-01-14 05:15:00,49.8,49.8,29.99,SSE,150,0.0,0.0,100,0.00,CLR,,0.00,WeatherDisplay:10.37,2013-01-14 10:15:00,
2013-01-14 05:30:00,49.3,49.3,29.99,South,186,0.0,0.0,100,0.00,CLR,,0.00,WeatherDisplay:10.37,2013-01-14 10:30:00,
2013-01-14 05:45:00,48.9,48.9,29.99,SSW,209,0.0,0.0,100,0.00,CLR,,0.00,WeatherDisplay:10.37,2013-01-14 10:45:00,
2013-01-14 06:00:00,48.7,48.7,29.99,SSW,210,0.0,0.0,100,0.00,CLR,,0.00,WeatherDisplay:10.37,2013-01-14 11:00:00,
2013-01-14 06:15:00,49.1,49.1,29.99,SSW,210,0.0,0.0,100,0.00,CLR,,0.00,WeatherDisplay:10.37,2013-01-14 11:15:00,
2013-01-14 06:30:00,49.5,49.5,30.01,South,185,0.0,0.0,100,0.00,CLR,,0.00,WeatherDisplay:10.37,2013-01-14 11:30:00,
2013-01-14 06:45:00,49.8,49.8,30.01,WNW,295,0.0,0.0,100,0.00,BKN,,0.00,WeatherDisplay:10.37,2013-01-14 11:45:00,
2013-01-14 07:00:00,50.2,50.2,30.01,SSE,155,0.0,0.0,100,0.00,BKN,,0.00,WeatherDisplay:10.37,2013-01-14 12:00:00,
2013-01-14 07:15:00,50.2,50.2,30.01,SSE,162,0.0,3.0,100,0.00,SCT,,0.00,WeatherDisplay:10.37,2013-01-14 12:15:00,
2013-01-14 07:30:00,52.3,52.3,30.04,SW,227,1.0,4.0,100,0.00,SCT,,0.00,WeatherDisplay:10.37,2013-01-14 12:30:00,
2013-01-14 07:45:00,52.0,52.0,30.04,SW,215,0.0,0.0,100,0.00,CLR,,0.00,WeatherDisplay:10.37,2013-01-14 12:45:00,
2013-01-14 08:00:00,52.9,52.9,30.04,WSW,255,1.0,5.0,100,0.00,CLR,,0.00,WeatherDisplay:10.37,2013-01-14 13:00:00,
2013-01-14 08:15:00,52.7,52.7,30.04,South,182,1.0,5.0,100,0.00,CLR,,0.00,WeatherDisplay:10.37,2013-01-14 13:15:00,
2013-01-14 08:30:00,53.1,53.1,30.07,SSW,205,0.0,0.0,100,0.00,CLR,,0.00,WeatherDisplay:10.37,2013-01-14 13:30:00,
2013-01-14 08:45:00,53.4,53.4,30.07,SSW,212,0.0,0.0,100,0.00,CLR,,0.00,WeatherDisplay:10.37,2013-01-14 13:45:00,
2013-01-14 09:00:00,54.0,54.0,30.07,West,277,0.0,0.0,100,0.00,CLR,,0.00,WeatherDisplay:10.37,2013-01-14 14:00:00,
2013-01-14 09:15:00,54.5,54.5,30.07,SSW,211,0.0,0.0,100,0.00,BKN,,0.00,WeatherDisplay:10.37,2013-01-14 14:15:00,
2013-01-14 09:30:00,54.9,54.9,30.07,SSW,195,0.0,0.0,100,0.00,BKN,,0.00,WeatherDisplay:10.37,2013-01-14 14:30:00,
2013-01-14 09:45:00,55.0,55.0,30.07,WNW,302,1.0,5.0,100,0.00,BKN,,0.00,WeatherDisplay:10.37,2013-01-14 14:45:00,
2013-01-14 10:00:00,54.5,54.5,30.10,WNW,300,3.0,4.0,100,0.00,FEW,,0.00,WeatherDisplay:10.37,2013-01-14 15:00:00,
2013-01-14 10:15:00,54.5,54.5,30.10,West,276,3.0,4.0,100,0.00,CLR,,0.00,WeatherDisplay:10.37,2013-01-14 15:15:00,
2013-01-14 10:30:00,55.0,55.0,30.10,WNW,290,3.0,5.0,100,0.00,CLR,,0.00,WeatherDisplay:10.37,2013-01-14 15:30:00,
2013-01-14 10:45:00,55.6,55.6,30.10,West,271,5.0,6.0,100,0.00,CLR,,0.00,WeatherDisplay:10.37,2013-01-14 15:45:00,
2013-01-14 11:00:00,56.1,56.1,30.10,WNW,299,3.0,10.0,100,0.00,CLR,,0.00,WeatherDisplay:10.37,2013-01-14 16:00:00,
2013-01-14 11:15:00,52.5,52.5,30.10,NW,321,9.0,15.0,100,0.00,SCT,,0.00,WeatherDisplay:10.37,2013-01-14 16:15:00,
2013-01-14 11:30:00,53.2,53.2,30.10,NW,312,7.0,8.0,100,0.00,SCT,,0.00,WeatherDisplay:10.37,2013-01-14 16:30:00,
2013-01-14 11:45:00,52.0,52.0,30.10,NW,308,8.0,9.0,100,0.00,OVC,,0.00,WeatherDisplay:10.37,2013-01-14 16:45:00,
2013-01-14 12:00:00,50.7,50.7,30.10,WNW,303,8.0,8.0,100,0.00,OVC,,0.00,WeatherDisplay:10.37,2013-01-14 17:00:00,
2013-01-14 12:15:00,51.1,51.1,30.10,WNW,285,7.0,10.0,100,0.00,OVC,,0.00,WeatherDisplay:10.37,2013-01-14 17:15:00,
2013-01-14 12:30:00,51.1,51.1,30.10,West,267,7.0,9.0,100,0.00,OVC,,0.00,WeatherDisplay:10.37,2013-01-14 17:30:00,
2013-01-14 12:45:00,51.6,51.6,30.10,NW,313,6.0,9.0,100,0.00,OVC,,0.00,WeatherDisplay:10.37,2013-01-14 17:45:00,
2013-01-14 13:00:00,52.0,52.0,30.10,NW,312,8.0,11.0,100,0.00,OVC,,0.00,WeatherDisplay:10.37,2013-01-14 18:00:00,
2013-01-14 13:15:00,52.0,52.0,30.10,NW,311,9.0,13.0,100,0.00,OVC,,0.00,WeatherDisplay:10.37,2013-01-14 18:15:00,
2013-01-14 13:30:00,52.7,52.7,30.10,NNW,333,6.0,7.0,100,0.00,BKN,,0.00,WeatherDisplay:10.37,2013-01-14 18:30:00,
2013-01-14 13:45:00,52.7,52.7,30.10,NW,313,7.0,10.0,100,0.00,SCT,,0.00,WeatherDisplay:10.37,2013-01-14 18:45:00,
2013-01-14 14:00:00,52.9,52.9,30.10,NW,319,9.0,11.0,100,0.00,SCT,,0.00,WeatherDisplay:10.37,2013-01-14 19:00:00,
2013-01-14 14:15:00,53.6,51.9,30.10,NW,322,8.0,11.0,94,0.00,SCT,,0.00,WeatherDisplay:10.37,2013-01-14 19:15:00,
2013-01-14 14:30:00,53.1,49.9,30.13,NW,311,8.0,10.0,89,0.00,BKN,,0.00,WeatherDisplay:10.37,2013-01-14 19:30:00,
2013-01-14 14:45:00,52.5,47.8,30.13,NW,321,7.0,9.0,84,0.00,BKN,,0.00,WeatherDisplay:10.37,2013-01-14 19:45:00,
2013-01-14 15:00:00,52.2,47.8,30.13,NNW,345,5.0,7.0,85,0.00,FEW,,0.00,WeatherDisplay:10.37,2013-01-14 20:00:00,
2013-01-14 15:15:00,52.2,48.7,30.10,North,350,1.0,0.0,88,0.00,FEW,,0.00,WeatherDisplay:10.37,2013-01-14 20:15:00,
2013-01-14 15:30:00,52.2,49.6,30.13,WNW,292,0.0,3.0,91,0.01,RA,,0.01,WeatherDisplay:10.37,2013-01-14 20:30:00,
2013-01-14 15:45:00,50.9,48.7,30.16,WNW,291,2.0,5.0,92,0.00,BKN,,0.01,WeatherDisplay:10.37,2013-01-14 20:45:00,
2013-01-14 16:00:00,50.0,47.5,30.16,NW,317,5.0,6.0,91,0.00,BKN,,0.01,WeatherDisplay:10.37,2013-01-14 21:00:00,
2013-01-14 16:15:00,49.8,47.3,30.16,NW,319,7.0,13.0,91,0.00,BKN,,0.01,WeatherDisplay:10.37,2013-01-14 21:15:00,
2013-01-14 16:30:00,50.0,46.6,30.16,North,356,2.0,2.0,88,0.00,BKN,,0.01,WeatherDisplay:10.37,2013-01-14 21:30:00,
2013-01-14 16:45:00,50.2,46.5,30.16,NNE,15,0.0,1.0,87,0.00,OVC,,0.01,WeatherDisplay:10.37,2013-01-14 21:45:00,
2013-01-14 17:00:00,50.0,46.3,30.16,North,351,0.0,2.0,87,0.00,OVC,,0.01,WeatherDisplay:10.37,2013-01-14 22:00:00,
2013-01-14 17:15:00,49.1,43.5,30.19,NW,304,5.0,6.0,81,0.00,OVC,,0.01,WeatherDisplay:10.37,2013-01-14 22:15:00,
2013-01-14 17:30:00,48.6,41.0,30.19,NNW,328,8.0,12.0,75,0.00,OVC,,0.01,WeatherDisplay:10.37,2013-01-14 22:30:00,
2013-01-14 17:45:00,48.9,41.3,30.19,NNW,333,8.0,9.0,75,0.00,OVC,,0.01,WeatherDisplay:10.37,2013-01-14 22:45:00,
2013-01-14 18:00:00,49.1,41.9,30.16,North,350,3.0,6.0,76,0.00,OVC,,0.01,WeatherDisplay:10.37,2013-01-14 23:00:00,
2013-01-14 18:15:00,49.3,42.0,30.16,North,350,0.0,0.0,76,0.00,OVC,,0.01,WeatherDisplay:10.37,2013-01-14 23:15:00,
2013-01-14 18:30:00,48.7,39.8,30.19,NW,314,3.0,9.0,71,0.00,OVC,,0.01,WeatherDisplay:10.37,2013-01-14 23:30:00,
2013-01-14 18:45:00,48.4,39.0,30.19,NNW,331,7.0,12.0,70,0.00,OVC,,0.01,WeatherDisplay:10.37,2013-01-14 23:45:00,
2013-01-14 19:00:00,48.6,39.2,30.19,NW,321,3.0,7.0,70,0.00,OVC,,0.01,WeatherDisplay:10.37,2013-01-15 00:00:00,
2013-01-14 19:15:00,48.6,39.6,30.16,NNW,340,0.0,2.0,71,0.00,OVC,,0.01,WeatherDisplay:10.37,2013-01-15 00:15:00,
2013-01-14 19:30:00,47.5,39.6,30.19,NW,313,3.0,7.0,74,0.00,OVC,,0.01,WeatherDisplay:10.37,2013-01-15 00:30:00,
2013-01-14 19:45:00,47.1,39.6,30.22,NW,312,8.0,13.0,75,0.01,RA,,0.03,WeatherDisplay:10.37,2013-01-15 00:45:00,
2013-01-14 20:00:00,45.9,40.7,30.19,NW,319,9.0,12.0,82,0.00,OVC,,0.03,WeatherDisplay:10.37,2013-01-15 01:00:00,
2013-01-14 20:15:00,45.9,41.9,30.22,NNW,328,7.0,7.0,86,0.03,RA,,0.06,WeatherDisplay:10.37,2013-01-15 01:15:00,
2013-01-14 20:30:00,45.3,42.0,30.22,NW,323,7.0,9.0,88,0.03,RA,,0.09,WeatherDisplay:10.37,2013-01-15 01:30:00,
2013-01-14 20:45:00,45.1,42.4,30.22,NNW,328,6.0,8.0,90,0.01,OVC,,0.10,WeatherDisplay:10.37,2013-01-15 01:45:00,
2013-01-14 21:00:00,45.7,43.5,30.22,NW,319,6.0,8.0,92,0.01,RA,,0.11,WeatherDisplay:10.37,2013-01-15 02:00:00,
2013-01-14 21:15:00,45.5,43.6,30.22,NW,324,5.0,6.0,93,0.00,OVC,,0.11,WeatherDisplay:10.37,2013-01-15 02:15:00,
2013-01-14 21:30:00,45.0,43.1,30.22,NNW,333,6.0,7.0,93,0.00,OVC,,0.11,WeatherDisplay:10.37,2013-01-15 02:30:00,
2013-01-14 21:45:00,45.1,43.2,30.22,NNW,346,7.0,9.0,93,0.00,OVC,,0.11,WeatherDisplay:10.37,2013-01-15 02:45:00,
2013-01-14 22:00:00,45.3,43.4,30.22,NNW,345,7.0,8.0,93,0.00,OVC,,0.11,WeatherDisplay:10.37,2013-01-15 03:00:00,
2013-01-14 22:15:00,45.3,43.4,30.22,North,350,7.0,9.0,93,0.00,OVC,,0.11,WeatherDisplay:10.37,2013-01-15 03:15:00,
2013-01-14 22:30:00,45.0,43.1,30.22,North,7,5.0,7.0,93,0.00,OVC,,0.11,WeatherDisplay:10.37,2013-01-15 03:30:00,
2013-01-14 22:45:00,45.1,43.5,30.22,NNW,341,2.0,5.0,94,0.00,OVC,,0.11,WeatherDisplay:10.37,2013-01-15 03:45:00,
2013-01-14 23:00:00,45.0,43.6,30.22,North,353,6.0,8.0,95,0.01,RA,,0.13,WeatherDisplay:10.37,2013-01-15 04:00:00,
2013-01-14 23:15:00,45.0,43.9,30.22,NNW,343,3.0,5.0,96,0.01,RA,,0.14,WeatherDisplay:10.37,2013-01-15 04:15:00,
2013-01-14 23:30:00,45.1,44.3,30.22,North,8,1.0,3.0,97,0.01,RA,,0.16,WeatherDisplay:10.37,2013-01-15 04:30:00,
2013-01-14 23:45:00,45.5,45.0,30.22,North,355,2.0,5.0,98,0.01,RA,,0.17,WeatherDisplay:10.37,2013-01-15 04:45:00,